Jackson, NJ

8:36 AM EST on December 08, 2016 (GMT -0500)
Lakehurst Naes

Weather History for KNEL - January, 2014

Change the Weather History Date:

Wednesday, January 8, 2014

  Actual Average Record
Temperature  
Mean Temperature 14 °F -  
Max Temperature 18 °F 40 °F 39 °F (2016)
Min Temperature 6 °F 30 °F 39 °F (2016)
Degree Days  
Heating Degree Days 52    
Moisture  
Dew Point -2 °F    
Average Humidity 52    
Maximum Humidity 73    
Minimum Humidity 34    
Precipitation  
Precipitation 0.00 in - - ()
Sea Level Pressure  
Sea Level Pressure 30.51 in    
Wind  
Wind Speed 7 mph (West)    
Max Wind Speed 15 mph    
Max Gust Speed 22 mph    
Averages and records for this station are not official NWS values.
T = Trace of Precipitation, MM = Missing Value Source: NWS Daily Summary

Daily Weather History Graph

Daily Weather History Graph

Search for Another Location

Airport or City:

Trip Planner

Search our weather history database for the weather conditions in past years. The results will help you decide how hot, cold, wet, or windy it might be!

Date:

Astronomy

Jan. 08, 2014 Rise Set
Actual Time 7:19 AM EST 4:49 PM EST
Civil Twilight 6:49 AM EST 5:19 PM EST
Nautical Twilight 6:15 AM EST 5:53 PM EST
Astronomical Twilight 5:42 AM EST 6:25 PM EST
Moon 11:40 AM EST 12:22 AM EST
Length of Visible Light 10h 30m
Length of Day
9h 29m
First Quarter, 56% of the Moon is Illuminated
Jan 8
First Quarter
Jan 15
Full
Jan 24
Last Quarter
Jan 30
New
Feb 6
First Quarter

Hourly Weather History & Observations

Time (EST) Temp. Windchill Dew Point Humidity Pressure Visibility Wind Dir Wind Speed Gust Speed Precip Events Conditions
12:00 AM 9.0 °F -4.2 °F -7.1 °F 48% 30.42 in - West 9.2 mph - N/A   Clear
1:00 AM 9.0 °F -3.2 °F -6.0 °F 51% 30.44 in - West 8.1 mph - N/A   Clear
2:00 AM 9.0 °F -2.2 °F -6.0 °F 51% 30.46 in - West 6.9 mph - N/A   Clear
4:00 AM 9.0 °F -4.2 °F -6.0 °F 51% 30.48 in - WNW 9.2 mph - N/A   Clear
5:00 AM 9.0 °F -4.2 °F -6.0 °F 51% 30.48 in - WNW 9.2 mph - N/A   Clear
6:00 AM 7.0 °F -1.7 °F -5.1 °F 58% 30.50 in - West 4.6 mph - N/A   Clear
7:00 AM 6.1 °F -2.8 °F -4.0 °F 63% 30.52 in - West 4.6 mph - N/A   Clear
8:00 AM 9.0 °F 0.6 °F -4.0 °F 56% 30.56 in - West 4.6 mph - N/A   Clear
9:00 AM 12.9 °F -0.9 °F -5.1 °F 45% 30.57 in - WNW 11.5 mph 20.7 mph N/A   Clear
10:00 AM 15.1 °F 1.8 °F -4.0 °F 43% 30.58 in - West 11.5 mph 19.6 mph N/A   Clear
11:00 AM 17.1 °F 4.3 °F -2.9 °F 41% 30.56 in - WNW 11.5 mph 16.1 mph N/A   Clear
2:00 PM 21.0 °F 7.6 °F -2.9 °F 35% 30.51 in - West 15.0 mph 21.9 mph N/A   Clear
3:00 PM 21.9 °F 11.0 °F -2.9 °F 34% 30.50 in - West 10.4 mph - N/A   Clear
4:00 PM 21.9 °F 11.7 °F -2.9 °F 34% 30.50 in - West 9.2 mph - N/A   Clear
5:00 PM 19.0 °F 12.3 °F -0.9 °F 42% 30.50 in - WSW 4.6 mph - N/A   Clear
6:00 PM 16.0 °F - 1.9 °F 54% 30.52 in - Calm Calm - N/A   Clear
7:00 PM 12.9 °F - 1.9 °F 62% 30.54 in - Calm Calm - N/A   Clear
8:00 PM 12.9 °F - 3.0 °F 65% 30.55 in - Calm Calm - N/A   Clear
9:00 PM 10.9 °F - 3.9 °F 73% 30.55 in - Calm Calm - N/A   Scattered Clouds
10:00 PM 15.1 °F - 7.0 °F 70% 30.54 in - Calm Calm - N/A   Overcast
11:00 PM 17.1 °F - 7.0 °F 65% 30.52 in - Calm Calm - N/A   Overcast